TITAN 3C TRANSTAGE DEB, 21692

Orbit data source: Space-Track

TITAN 3C TRANSTAGE DEB, 21692 is space debris in HEO originally from a launch on Tue, 21 Dec 1965 UTC launched from the Air Force Eastern Test Range (AFETR). Debris objects in space refer to the collection of defunct objects orbiting the Earth. Examples of debris include non-operational satellites, rocket bodies, and fragments generated from explosions, collisions, or faulty payload assembly.

Loading next visibility...
Identifier
21692, 1965-108AF
Orbit
HEO
Last TLE update
12 hours ago
Origin
Manufacturer
Unknown
Mission
Spacecraft
Bus & Motor
Unknown
Mass
Unknown
Launch date (UTC)
1965-12-21 (60 years ago)
Launch vehicle
Unknown
Launch site
Air Force Eastern Test Range (AFETR)
Object type
Payload
Rocket body
Debris
Shape & HBR
Unknown
Radar Cross Section
Medium (>0.1 m² and <1 m²)

Expand to show TLE details & history

TLE from 12 hours ago
0 TITAN 3C TRANSTAGE DEB
1 21692U 65108AF  25181.90726390  .00002025  00000-0  91441-2 0  9993
2 21692  27.9052  23.9149 6173826 153.7607 108.7389  3.56928558151854
Epoch: 2025-06-30T21:46Z
TLE epoch observation values (Epoch: 2025-06-30T21:46:27.6Z)
Latitude
-20.89033°
Longitude
92.05817°
Altitude
19,482.399 km
Speed
2.965 km/s
True Right ascension
22h 31m 32s
True Declination
-20° 51' 32"
Sunlit
Object was in daylight at epoch
Visualization orbit readout
Latitude
-27.81104°
Longitude
54.13105°
Altitude
10,133.007 km
Speed
5.124 km/s
Apparent Right ascension
19h 12m 50s
Apparent Declination
-48° 28' 41"
Sunlit
Object is in full shadow
Visualization observer readout
Local Sidereal Time
21:42:20
Azimuth
203.802° SW
Elevation
-4.38°
Doppler factor
1
Orbital elements
Apogee altitude
22,879.64 km
Perigee altitude
543.252 km
Semi-major axis
18,089.583 km
Eccentricity
0.61738
Inclination
27.9052°
RAAN
23.9149°
Arg. of periapsis
153.7607°
True anomaly
Unknown
Mean anomaly
108.7389°
Eccentric anomaly
Unknown
Mean motion
0.89207 °/min
Orbital period
403.55 mins
BSTAR
0.0091441
Loading maneuver chart data...
Loading SW <> Apogee altitude chart data...

TITAN 3C TRANSTAGE DEB Visibility forecast

Observer location: undefined°, undefined°

Span
Click to sort rows by Start time (UTC) header in descending order
Start Az.
Max El. time (UTC)
Max El. Az.
Max El.
End time (UTC)
End Az.
285 mins2025-07-01 10:46:57.141Z188.827° SSW2025-07-01 14:58:57.141Z156.246° SSE36.338°2025-07-01 15:31:57.141Z94.868° ESE
10 mins2025-07-01 22:21:57.141Z261.021° W2025-07-01 22:28:57.141Z222.157° SW19.552°2025-07-01 22:31:57.141Z183.289° SSW
24 mins2025-07-02 09:39:57.141Z117.804° SE2025-07-02 10:03:57.141Z114.417° SE11.226°2025-07-02 10:03:57.141Z114.417° SE
|